Content
SEND FEEDBACK

Daily
Averages
Monthly
Summary
United States of America

ROME, GEORGIA


Home > North America > United States > Georgia
Elevation: 644 feet     Latitude: 34 20N     Longitude: 085 09W

WEATHER
 
SELECT A DAY
Number of Records: 210,883;   Date Range: 1/1/95 - 9/3/14
 
SHARE

PRINT THIS DATA

[ ← Previous Day ]
WEATHER ALMANAC - JUNE 9, 2014
[ Next Day → ]
[ °C ]   °F
Weather ElementAverageHighLow
Temperature72.7 °F82 °F (5:53 pm)63 °F (6:53 am)
Dewpoint67 °F72 °F (8:53 pm)62.1 °F (6:53 am)
Humidity82.8 %97 % (2:53 am)67 % (5:53 pm)
Barometer29.90 in29.97 in (8:35 am)29.85 in (6:53 pm)
Wind Speed3.2 mph9.2 mph (8:35 am)
Weather ElementAverage
Visibility9.6 mi
Wind DirectionESE (129.2 °)

Weather ElementTotal
Precipitation0.04 in
Cooling Degree Days7.5 (Base 65)
Growing Degree Days22.5 (Base 50)
Averaged from 25 records on June 9, 2014
WEATHER CONDITIONS BREAKOUT
WIND DIRECTION BREAKOUT
WEATHER BY HOUR - JUNE 9, 2014
[ °C ]   °F
Local TimeTemperatureDewpointHumidityBarometerVisibilityWind DirectionWind SpeedGust SpeedPrecipitationEventsConditions
1:53 AM69.1 °F66.9 °F93 %29.89 in10.0 miNorth (10°)4.6 mphClear
2:53 AM66.9 °F66.0 °F97 %29.89 in10.0 miNNW (330°)3.5 mphClear
3:53 AM66.9 °F64.0 °F90 %29.88 in10.0 miNNW (330°)6.9 mphClear
4:53 AM66.0 °F63.0 °F90 %29.89 in10.0 miWNW (300°)3.5 mphMostly Cloudy
5:53 AM64.9 °F63.0 °F93 %29.90 in10.0 miNNW (340°)3.5 mphMostly Cloudy
6:53 AM63.0 °F62.1 °F97 %29.90 in8.0 miCalmClear
7:53 AM66.0 °F64.0 °F93 %29.91 in8.0 miCalmClear
8:35 AM70.0 °F62.1 °F76 %29.97 in10.0 miNW (310°)9.2 mphThunderstormMostly Cloudy
8:53 AM68.0 °F62.1 °F81 %29.94 in10.0 miEast (100°)3.5 mphScattered Clouds
9:53 AM69.1 °F64.0 °F84 %29.94 in10.0 miCalm0.04 inClear
10:53 AM71.6 °F66.2 °F83 %29.96 in10.0 miNNW (330°)3.5 mphClear
11:53 AM73.0 °F66.0 °F79 %29.91 in10.0 miVariable3.5 mphPartly Cloudy
12:53 PM75.9 °F68.0 °F76 %29.92 in10.0 miSouth (180°)4.6 mphClear
1:53 PM75.9 °F68.0 °F76 %29.92 in10.0 miVariable3.5 mphMostly Cloudy
2:06 PM77.0 °F68.0 °F74 %29.94 in10.0 miWSW (250°)6.9 mphMostly Cloudy
2:34 PM77.0 °F66.9 °F71 %29.93 in10.0 miVariable5.8 mphScattered Clouds
3:53 PM80.6 °F69.8 °F70 %29.91 in10.0 miCalmClear
4:53 PM81.0 °F70.0 °F69 %29.87 in10.0 miNorth (350°)5.8 mphMostly Cloudy
5:53 PM82.0 °F70.0 °F67 %29.86 in10.0 miNW (320°)5.8 mphClear
6:53 PM82.0 °F70.0 °F67 %29.85 in10.0 miVariable3.5 mphClear
7:53 PM81.0 °F70.0 °F69 %29.86 in10.0 miEast (80°)3.5 mphClear
8:53 PM75.0 °F72.0 °F90 %29.87 in10.0 miCalmClear
9:53 PM73.0 °F71.1 °F93 %29.88 in10.0 miCalmClear
10:53 PM72.0 °F71.1 °F97 %29.90 in9.0 miCalmClear
11:53 PM71.1 °F70.0 °F96 %29.91 in5.0 miCalmClear
Hourly data recorded from KRMG, located miles away from Rome, Georgia







STORIES FROM OUR PARTNERS